Location: Newark
(41.6500°N, 71.4833°W)
Time: 10:42:06
(UTC+00:00)

Tiros 1 despin weight - All Passes

Search period start: 25 January 2020 00:00
Search period end: 04 February 2020 00:00
Orbit: 594 x 642 km, 48.2° (Epoch: 24 January)

Date Brightness Start Highest point End Pass type
(mag) Time Alt. Az. Time Alt. Az. Time Alt. Az.
25 Jan - 14:30:55 10° S 14:34:00 18° SE 14:37:08 10° E daylight
25 Jan - 16:10:33 10° WSW 16:15:03 85° SSE 16:19:40 10° ENE daylight
25 Jan - 17:52:40 10° W 17:56:58 40° N 18:01:20 10° ENE daylight
25 Jan - 19:34:52 10° WNW 19:39:14 40° N 19:43:38 10° E daylight
25 Jan - 21:16:29 10° WNW 21:21:09 85° SSW 21:25:50 10° ESE daylight
25 Jan - 22:58:56 10° W 23:02:15 19° SW 23:05:34 10° S visible
26 Jan - 14:46:13 10° SSW 14:50:16 34° SE 14:54:23 10° ENE daylight
26 Jan - 16:27:12 10° WSW 16:31:40 62° NNW 16:36:14 10° ENE daylight
26 Jan - 18:09:34 10° WNW 18:13:47 36° N 18:18:05 10° ENE daylight
26 Jan - 19:51:30 10° WNW 19:56:00 51° NNE 20:00:34 10° E daylight
26 Jan - 21:33:08 10° WNW 21:37:38 50° SW 21:42:09 10° SE daylight
27 Jan - 13:24:04 10° SSE 13:25:49 12° SE 13:27:35 10° ESE daylight
27 Jan - 15:02:15 10° SW 15:06:40 63° SSE 15:11:10 10° ENE daylight
27 Jan - 16:44:02 10° W 16:48:23 45° NNW 16:52:49 10° ENE daylight
27 Jan - 18:26:22 10° WNW 18:30:38 37° N 18:34:57 10° ENE daylight
27 Jan - 20:08:03 10° WNW 20:12:40 74° NNE 20:17:21 10° ESE daylight
27 Jan - 21:50:02 10° W 21:53:58 27° SW 21:57:55 10° SSE daylight
28 Jan - 13:38:26 10° S 13:41:59 24° SE 13:45:36 10° E daylight
28 Jan - 15:18:42 10° WSW 15:23:11 79° NNW 15:27:46 10° ENE daylight
28 Jan - 17:00:58 10° WNW 17:05:11 37° N 17:09:29 10° ENE daylight
28 Jan - 18:43:03 10° WNW 18:47:27 43° NNE 18:51:53 10° E daylight
28 Jan - 20:24:38 10° WNW 20:29:14 69° SSW 20:33:52 10° SE daylight
28 Jan - 22:07:40 10° W 22:10:12 15° SW 22:12:43 10° SSW daylight
29 Jan - 13:54:05 10° SW 13:58:18 44° SE 14:02:36 10° ENE daylight
29 Jan - 15:35:27 10° W 15:39:51 53° NNW 15:44:20 10° ENE daylight
29 Jan - 17:17:50 10° WNW 17:22:02 36° N 17:26:18 10° ENE daylight
29 Jan - 18:59:38 10° WNW 19:04:10 59° NNE 19:08:46 10° ESE daylight
29 Jan - 20:41:22 10° WNW 20:45:40 39° SW 20:49:59 10° SSE daylight
30 Jan - 12:31:01 10° S 12:33:46 16° SE 12:36:33 10° E daylight
30 Jan - 14:10:18 10° SW 14:14:45 79° SSE 14:19:18 10° ENE daylight
30 Jan - 15:52:20 10° W 15:56:36 40° N 16:00:56 10° ENE daylight
30 Jan - 17:34:34 10° WNW 17:38:51 39° N 17:43:12 10° E daylight
30 Jan - 19:16:11 10° WNW 19:20:48 89° NE 19:25:27 10° ESE daylight
30 Jan - 20:58:28 10° W 21:01:57 21° SW 21:05:27 10° S daylight
31 Jan - 12:46:06 10° SSW 12:50:00 31° SE 12:53:57 10° ENE daylight
31 Jan - 14:26:54 10° WSW 14:31:20 66° NNW 14:35:52 10° ENE daylight
31 Jan - 16:09:15 10° WNW 16:13:25 36° N 16:17:40 10° ENE daylight
31 Jan - 17:51:13 10° WNW 17:55:38 48° NNE 18:00:08 10° E daylight
31 Jan - 19:32:48 10° WNW 19:37:18 54° SW 19:41:50 10° SE daylight
31 Jan - 21:17:14 10° WSW 21:18:07 10° SW 21:19:00 10° SW daylight
01 Feb - 11:24:43 10° SE 11:25:35 10° SE 11:26:27 10° ESE visible
01 Feb - 13:02:01 10° SW 13:06:22 57° SE 13:10:47 10° ENE daylight
01 Feb - 14:43:44 10° W 14:48:02 46° NNW 14:52:25 10° ENE daylight
01 Feb - 16:26:04 10° WNW 16:30:16 36° N 16:34:31 10° ENE daylight
01 Feb - 18:07:46 10° WNW 18:12:19 69° NNE 18:16:56 10° ESE daylight
01 Feb - 19:49:39 10° WNW 19:53:40 30° SW 19:57:43 10° SSE daylight
02 Feb - 11:38:23 10° S 11:41:45 21° SE 11:45:08 10° E daylight
02 Feb - 13:18:26 10° WSW 13:22:53 84° NNW 13:27:24 10° ENE daylight
02 Feb - 15:00:38 10° WNW 15:04:50 38° N 15:09:05 10° ENE daylight
02 Feb - 16:42:46 10° WNW 16:47:04 42° NNE 16:51:27 10° E daylight
02 Feb - 18:24:20 10° WNW 18:28:54 75° SSW 18:33:31 10° SE daylight
02 Feb - 20:07:06 10° W 20:09:54 16° SW 20:12:43 10° S daylight
03 Feb - 11:53:55 10° SSW 11:58:02 40° SE 12:02:13 10° ENE daylight
03 Feb - 13:35:09 10° W 13:39:30 55° NNW 13:43:57 10° ENE daylight
03 Feb - 15:17:31 10° WNW 15:21:39 35° N 15:25:52 10° ENE daylight
03 Feb - 16:59:21 10° WNW 17:03:49 55° NNE 17:08:20 10° E daylight
03 Feb - 18:41:02 10° WNW 18:45:20 42° SW 18:49:42 10° SSE daylight
